EW5833 Weather Reports


Display with metric or nautical units.
time (UTC)temp
F
wind
direction
speed
MPH
gust
MPH
rain 1hr
in
rain 24hr
in
rain mn
in
humidity
%
barometer
mb
20260510153856 54 268 2.0 8.0 0.00 0.32 0.00 40 1016.6
20260510152855 52 283 4.0 9.0 0.00 0.32 0.00 41 1016.6
20260510151853 52 76 4.0 10.0 0.00 0.32 0.00 39 1016.5
20260510151331 52 227 4.0 11.0 0.00 0.32 0.00 42 1016.5
20260510151105 52 227 4.0 11.0 0.00 0.32 0.00 42 1016.5
20260510150542 52 337 4.0 9.0 0.00 0.32 0.00 41 1016.4
20260510150430 52 337 4.0 9.0 0.00 0.32 0.00 41 1016.4
20260510144851 52 326 4.0 10.0 0.00 0.32 0.00 41 1016.2
20260510143851 51 289 4.0 10.0 0.00 0.32 0.00 44 1016.1
20260510143542 51 328 3.0 9.0 0.00 0.32 0.00 44 1016.1
20260510143430 51 328 3.0 9.0 0.00 0.32 0.00 44 1016.1
20260510142822 51 0 3.0 9.0 0.00 0.32 0.00 44 1016.0
20260510141850 51 0 3.0 9.0 0.00 0.32 0.00 44 1016.0
20260510140850 50 328 4.0 8.0 0.00 0.32 0.00 44 1015.9
20260510140327 50 52 3.0 7.0 0.00 0.33 0.00 45 1015.8
20260510140100 50 52 3.0 7.0 0.00 0.33 0.00 45 1015.8
20260510135332 49 29 3.0 10.0 0.00 0.33 0.00 46 1015.8
20260510135100 49 29 3.0 10.0 0.00 0.33 0.00 46 1015.8
20260510133848 50 285 2.0 8.0 0.00 0.33 0.00 46 1015.8
20260510133330 49 0 2.0 7.0 0.00 0.33 0.00 49 1015.7
20260510132847 49 0 2.0 7.0 0.00 0.33 0.00 49 1015.7
20260510131846 48 59 2.0 6.0 0.00 0.33 0.00 50 1015.6
20260510131338 48 307 2.0 7.0 0.00 0.33 0.00 49 1015.5
20260510130847 48 307 2.0 7.0 0.00 0.33 0.00 49 1015.5
20260510125846 47 315 3.0 10.0 0.00 0.33 0.00 54 1015.4
20260510125326 47 333 3.0 9.0 0.00 0.33 0.00 55 1015.5
20260510125058 47 333 3.0 9.0 0.00 0.33 0.00 55 1015.5
20260510123846 47 338 2.0 8.0 0.00 0.33 0.00 56 1015.2
20260510123331 46 291 2.0 6.0 0.00 0.33 0.00 58 1015.1
20260510122846 46 291 2.0 6.0 0.00 0.33 0.00 58 1015.1
20260510121844 45 321 3.0 7.0 0.00 0.33 0.00 60 1015.0
20260510121338 45 345 3.0 7.0 0.00 0.33 0.00 62 1014.9
20260510120844 45 345 3.0 7.0 0.00 0.33 0.00 62 1014.9
20260510120327 45 300 3.0 8.0 0.00 0.33 0.00 62 1014.7
20260510115843 45 300 3.0 8.0 0.00 0.33 0.00 62 1014.7
20260510115803 44 315 1.0 3.0 0.00 0.33 0.00 64 1014.7
20260510115055 44 315 1.0 3.0 0.00 0.33 0.00 64 1014.7
20260510113844 43 332 2.0 5.0 0.00 0.33 0.00 66 1014.7
20260510113533 42 0 1.0 3.0 0.00 0.33 0.00 67 1014.6
20260510113421 42 0 1.0 3.0 0.00 0.33 0.00 67 1014.6
20260510112541 40 301 0.0 2.0 0.00 0.33 0.00 69 1014.5
20260510112356 40 301 0.0 2.0 0.00 0.33 0.00 69 1014.5
20260510110845 39 246 1.0 3.0 0.00 0.33 0.00 73 1014.4
20260510105845 38 313 0.0 3.0 0.00 0.33 0.00 75 1014.1
20260510105026 38 324 0.0 2.0 0.00 0.33 0.00 75 1014.0
20260510104846 38 0 1.0 2.0 0.00 0.33 0.00 75 1014.0
20260510104339 38 324 0.0 2.0 0.00 0.33 0.00 75 1014.0
20260510102845 38 320 0.0 2.0 0.00 0.33 0.00 75 1013.9
20260510101846 38 0 1.0 3.0 0.00 0.33 0.00 76 1013.9
20260510101822 38 0 1.0 4.0 0.00 0.33 0.00 76 1013.7
20260510101057 38 0 1.0 4.0 0.00 0.33 0.00 76 1013.7
20260510100317 38 0 0.0 2.0 0.00 0.33 0.00 77 1013.7
20260510100049 38 0 0.0 2.0 0.00 0.33 0.00 77 1013.7
20260510094839 39 0 0.0 0.0 0.00 0.33 0.00 77 1013.4
20260510093839 39 0 0.0 3.0 0.00 0.33 0.00 77 1013.3
20260510092844 39 287 0.0 2.0 0.00 0.33 0.00 76 1013.1
20260510091840 39 0 0.0 0.0 0.00 0.33 0.00 76 1013.0
20260510091327 39 0 0.0 0.0 0.00 0.33 0.00 77 1012.8
20260510090840 39 0 0.0 0.0 0.00 0.33 0.00 77 1012.8
20260510085837 40 0 0.0 0.0 0.00 0.33 0.00 76 1012.6
20260510084836 40 0 0.0 2.0 0.00 0.33 0.00 74 1012.5
20260510083836 40 0 1.0 3.0 0.00 0.33 0.00 73 1012.4
20260510083316 39 292 0.0 4.0 0.00 0.33 0.00 78 1012.2
20260510083048 39 292 0.0 4.0 0.00 0.33 0.00 78 1012.2
20260510082323 39 0 0.0 0.0 0.00 0.33 0.00 81 1012.0
20260510082128 40 0 0.0 0.0 0.00 0.33 0.00 79 1011.9
20260510082048 39 0 0.0 0.0 0.00 0.33 0.00 81 1012.0
20260510081659 40 0 0.0 0.0 0.00 0.33 0.00 79 1011.9
20260510075835 40 0 0.0 1.0 0.00 0.33 0.00 77 1011.7
20260510075318 41 0 0.0 1.0 0.00 0.33 0.00 75 1011.6
20260510075045 41 0 0.0 1.0 0.00 0.33 0.00 75 1011.6
20260510073834 42 0 0.0 3.0 0.00 0.33 0.00 73 1011.4
20260510072834 43 0 0.0 2.0 0.00 0.33 0.00 68 1011.3
20260510072320 43 0 0.0 2.0 0.00 0.33 0.00 68 1011.2
20260510071835 43 0 0.0 2.0 0.00 0.33 0.00 68 1011.2
20260510071317 43 0 0.0 2.0 0.00 0.33 0.00 68 1011.2
20260510070834 43 0 0.0 2.0 0.00 0.33 0.00 68 1011.2
20260510065832 44 0 0.0 2.0 0.00 0.33 0.00 65 1011.0
20260510064832 45 78 1.0 4.0 0.00 0.33 0.00 64 1010.9
20260510064310 45 288 0.0 4.0 0.00 0.33 0.00 64 1010.7
20260510064045 45 288 0.0 4.0 0.00 0.33 0.00 64 1010.7
20260510062832 46 0 1.0 4.0 0.00 0.33 0.00 64 1010.6
20260510062312 46 329 1.0 4.0 0.00 0.33 0.00 63 1010.5
20260510062041 46 329 1.0 4.0 0.00 0.33 0.00 63 1010.5
20260510060830 47 315 2.0 5.0 0.00 0.33 0.00 62 1010.3
20260510055829 47 291 2.0 7.0 0.00 0.33 0.00 60 1010.2
20260510054830 48 323 4.0 8.0 0.00 0.33 0.00 59 1010.1
20260510053829 48 343 4.0 9.0 0.00 0.33 0.00 60 1009.9
20260510052829 47 55 2.0 12.0 0.00 0.33 0.00 61 1009.9
20260510051830 47 321 1.0 4.0 0.00 0.33 0.00 66 1009.7
20260510050829 46 0 0.0 2.0 0.00 0.33 0.00 67 1009.6
20260510045829 47 0 0.0 0.0 0.00 0.33 0.00 69 1009.5
20260510044831 48 0 0.0 2.0 0.00 0.33 0.00 63 1009.3
20260510043831 49 0 0.0 4.0 0.00 0.33 0.00 60 1009.2
20260510043319 49 356 1.0 4.0 0.00 0.33 0.00 60 1008.9
20260510042830 49 356 1.0 4.0 0.00 0.33 0.00 60 1008.9
20260510041830 50 0 1.0 4.0 0.00 0.33 0.00 60 1008.9
20260510040829 50 341 0.0 3.0 0.00 0.33 0.00 60 1008.8
20260510035935 51 345 1.0 4.0 0.00 0.33 0.33 58 1008.5
20260510035831 51 0 0.0 3.0 0.00 0.33 0.33 59 1008.7
20260510035337 52 349 1.0 5.0 0.00 0.33 0.33 57 1008.4
20260510035012 51 345 1.0 4.0 0.00 0.33 0.33 58 1008.5
20260510034042 52 349 1.0 5.0 0.00 0.33 0.33 57 1008.4
20260510032831 52 7 2.0 8.0 0.00 0.33 0.33 56 1008.3
20260510031831 53 311 2.0 6.0 0.00 0.33 0.33 57 1008.3
20260510030829 54 352 2.0 9.0 0.00 0.33 0.33 56 1008.0
20260510025829 55 354 2.0 8.0 0.00 0.33 0.33 56 1007.9
20260510024829 56 345 3.0 7.0 0.00 0.33 0.33 54 1007.8
20260510024307 56 0 4.0 13.0 0.00 0.33 0.33 50 1007.6
20260510024041 56 0 4.0 13.0 0.00 0.33 0.33 50 1007.6
20260510023518 57 296 4.0 9.0 0.00 0.33 0.33 49 1007.3
20260510023404 57 296 4.0 9.0 0.00 0.33 0.33 49 1007.3
20260510021829 57 315 4.0 11.0 0.00 0.33 0.33 48 1007.1
20260510020830 57 336 3.0 8.0 0.00 0.33 0.33 48 1006.9
20260510015829 58 265 4.0 9.0 0.00 0.33 0.33 47 1006.4
20260510014830 58 287 3.0 9.0 0.00 0.33 0.33 46 1006.3
20260510013828 59 318 6.0 11.0 0.00 0.33 0.33 45 1006.0
20260510012829 59 28 4.0 10.0 0.00 0.33 0.33 45 1005.5
20260510012309 59 338 3.0 10.0 0.00 0.33 0.33 47 1005.1
20260510012041 59 338 3.0 10.0 0.00 0.33 0.33 47 1005.1
20260510010830 59 310 1.0 9.0 0.00 0.33 0.33 49 1004.9
20260510005828 59 304 0.0 3.0 0.00 0.33 0.33 49 1004.8
20260510005312 60 258 0.0 4.0 0.00 0.32 0.32 47 1004.6
20260510004830 60 258 0.0 4.0 0.00 0.32 0.32 47 1004.6
20260510003831 60 226 0.0 4.0 0.00 0.32 0.32 48 1004.4
20260510003751 61 334 1.0 4.0 0.00 0.32 0.32 47 1004.3
20260510002830 61 334 1.0 4.0 0.00 0.32 0.32 47 1004.3
20260510001829 60 0 0.0 4.0 0.00 0.32 0.32 47 1004.1
20260510000829 61 0 1.0 6.0 0.00 0.32 0.32 47 1004.0
20260510000313 61 297 2.0 6.0 0.00 0.32 0.32 46 1003.9
20260509235831 61 297 2.0 6.0 0.00 0.32 0.32 46 1003.9
20260509235312 62 0 3.0 8.0 0.00 0.32 0.32 46 1003.7
20260509235042 62 0 3.0 8.0 0.00 0.32 0.32 46 1003.7
20260509233836 62 267 2.0 11.0 0.00 0.32 0.32 44 1003.7
20260509233240 63 296 3.0 10.0 0.00 0.32 0.32 43 1003.3
20260509233022 63 304 4.0 11.0 0.00 0.32 0.32 44 1003.3
20260509231830 63 296 3.0 10.0 0.00 0.32 0.32 43 1003.3
20260509231311 64 200 4.0 11.0 0.00 0.32 0.32 42 1003.2
20260509231042 64 200 4.0 11.0 0.00 0.32 0.32 42 1003.2
20260509230318 64 292 4.0 12.0 0.00 0.32 0.32 43 1003.1
20260509230040 64 292 4.0 12.0 0.00 0.32 0.32 43 1003.1
20260509225316 65 292 3.0 9.0 0.00 0.32 0.32 42 1002.8
20260509225040 65 292 3.0 9.0 0.00 0.32 0.32 42 1002.8
20260509224308 66 245 5.0 13.0 0.00 0.32 0.32 40 1002.6
20260509224042 66 245 5.0 13.0 0.00 0.32 0.32 40 1002.6
20260509222830 67 0 3.0 9.0 0.00 0.32 0.32 39 1002.4
20260509221829 67 333 4.0 15.0 0.00 0.32 0.32 39 1002.2
20260509220829 67 317 4.0 10.0 0.00 0.32 0.32 40 1002.0
20260509215830 66 127 4.0 13.0 0.00 0.32 0.32 42 1002.0
20260509215315 66 302 3.0 10.0 0.00 0.32 0.32 41 1001.9
20260509215041 66 302 3.0 10.0 0.00 0.32 0.32 41 1001.9
20260509214749 66 187 4.0 9.0 0.00 0.32 0.32 41 1001.8
20260509213828 66 187 4.0 9.0 0.00 0.32 0.32 41 1001.8
20260509212829 66 299 4.0 15.0 0.00 0.32 0.32 41 1001.8
20260509211829 67 291 4.0 15.0 0.00 0.32 0.32 42 1001.7
20260509210829 67 285 3.0 11.0 0.00 0.32 0.32 41 1001.6
20260509210316 66 230 4.0 11.0 0.00 0.32 0.32 46 1001.7
20260509205829 66 230 4.0 11.0 0.00 0.32 0.32 46 1001.7
20260509204829 66 250 4.0 9.0 0.00 0.32 0.32 44 1001.7
20260509203829 66 314 3.0 10.0 0.00 0.32 0.32 46 1001.7
20260509203304 65 306 3.0 10.0 0.00 0.32 0.32 45 1001.5
20260509202828 65 306 3.0 10.0 0.00 0.32 0.32 45 1001.5
20260509201829 65 259 4.0 13.0 0.00 0.32 0.32 45 1001.9
20260509200830 65 204 4.0 19.0 0.00 0.32 0.32 49 1002.4
20260509200317 64 208 5.0 13.0 0.00 0.32 0.32 49 1002.6
20260509195826 64 208 5.0 13.0 0.00 0.32 0.32 49 1002.6
20260509194819 64 290 4.0 13.0 0.00 0.32 0.32 54 1002.3
20260509193820 65 315 2.0 6.0 0.00 0.32 0.32 63 1002.4
20260509192821 63 0 2.0 9.0 0.11 0.32 0.32 70 1002.4
20260509191818 61 274 2.0 6.0 0.31 0.32 0.32 82 1002.4
20260509190818 59 170 1.0 4.0 0.31 0.32 0.32 90 1002.5
20260509190737 57 210 1.0 4.0 0.31 0.32 0.32 92 1002.5
20260509185816 57 210 1.0 4.0 0.31 0.32 0.32 92 1002.5
20260509185735 53 235 1.0 4.0 0.31 0.32 0.32 96 1002.4
20260509185026 53 235 1.0 4.0 0.31 0.32 0.32 96 1002.4
20260509183815 53 220 2.0 11.0 0.31 0.32 0.32 93 1002.5
20260509182815 58 251 6.0 15.0 0.20 0.21 0.18 86 1002.6
20260509181816 65 283 2.0 10.0 0.00 0.01 0.01 50 1001.9
20260509180814 65 233 3.0 9.0 0.00 0.01 0.01 50 1001.3
20260509180246 67 205 3.0 15.0 0.00 0.01 0.01 49 1001.1
20260509180026 67 205 3.0 15.0 0.00 0.01 0.01 49 1001.1
20260509174814 68 212 3.0 9.0 0.00 0.01 0.01 48 1001.0
20260509173813 67 201 2.0 10.0 0.00 0.01 0.01 49 1001.2
20260509172810 67 234 3.0 8.0 0.00 0.01 0.01 49 1001.4
20260509172258 68 136 3.0 9.0 0.00 0.01 0.01 51 1001.4
20260509171810 68 136 3.0 9.0 0.00 0.01 0.01 51 1001.4
20260509170808 69 166 3.0 7.0 0.00 0.01 0.01 50 1001.5
20260509170737 68 217 3.0 10.0 0.00 0.01 0.01 54 1001.5
20260509165809 68 217 3.0 10.0 0.00 0.01 0.01 54 1001.5
20260509164801 67 185 4.0 12.0 0.00 0.01 0.01 53 1001.6
20260509164249 66 249 3.0 10.0 0.00 0.01 0.01 57 1001.6
20260509164013 66 249 3.0 10.0 0.00 0.01 0.01 57 1001.6
20260509162802 66 228 4.0 10.0 0.00 0.01 0.01 59 1001.6
20260509162247 64 160 3.0 10.0 0.00 0.01 0.01 60 1001.9
20260509162013 64 160 3.0 10.0 0.00 0.01 0.01 60 1001.9
20260509160801 61 169 2.0 9.0 0.00 0.01 0.01 70 1002.2
20260509160734 63 0 4.0 10.0 0.00 0.01 0.01 63 1002.0
20260509160013 63 0 4.0 10.0 0.00 0.01 0.01 63 1002.0
20260509154800 62 25 4.0 9.0 0.00 0.01 0.01 66 1002.0